Regional Weather Roundup
Issued by NWS

Home | Current Version | Previous Version | Text Only | Print | Product List | Glossary Off
Versions: 1 2 3 4 5 6 7 8 9 10 11 12 13 14 15 16 17 18 19 20 21 22 23 24 25 26 27 28 29 30 31 32 33 34 35 36 37 38 39 40 41 42 43 44 45 46 47 48 49 50

000
ASUS43 KDMX 310007
RWRIA

WEATHER ROUNDUP FOR IOWA
NATIONAL WEATHER SERVICE DES MOINES IA
700 PM CDT SUN AUG 30 2015

NOTE: "FAIR" INDICATES FEW OR NO CLOUDS BELOW 12,000 FEET WITH NO
SIGNIFICANT WEATHER AND/OR OBSTRUCTIONS TO VISIBILITY.

* - THESE STATIONS ARE NOT NWS STATIONS...THUS NOT UNDER NWS
QUALITY CONTROL.  THEY ALSO DO NOT REPORT WEATHER SUCH
AS PRECIPITATION OR FOG.

IAZ001>003-012>014-020>022-031>034-043>046-310100-
   NORTHWEST IOWA

CITY           SKY/WX    TMP DP  RH WIND       PRES   REMARKS
CARROLL *      CLEAR     70  68  94 S8        29.98S
CHEROKEE *     MOSUNNY   71  67  89 S9        29.96S
DENISON *      CLEAR     72  68  88 S5        29.95F
LE MARS *      SUNNY     72  66  83 S9G16     29.94F
ORANGE CITY *  SUNNY     72  66  83 S9        29.94F
SHELDON *      SUNNY     70  66  88 S8        29.93F
SPENCER        CLEAR     72  66  81 S7        29.95S
6HR MIN TEMP:  72; 6HR MAX TEMP:  77;

STORM LAKE *   CLEAR     70  66  88 S7        29.97F FOG
$$

IAZ055>058-069>071-079>083-090>094-310100-
   SOUTHWEST IOWA

CITY           SKY/WX    TMP DP  RH WIND       PRES   REMARKS
ATLANTIC *     CLEAR     73  70  88 S6        29.98F
AUDUBON *      CLEAR     72  66  83 S5        29.99F
CLARINDA *     CLEAR     77  72  83 CALM      29.99F
COUNCIL BLFS * SUNNY     73  68  83 S8        29.98S
CRESTON *      CLEAR     75  70  83 SE5       30.01F
HARLAN  *      CLEAR     73 -35   1 S10       30.01F
LAMONI         CLEAR     78  69  73 CALM      29.99F HX  80
6HR MIN TEMP:  75; 6HR MAX TEMP:  80;

RED OAK *      CLEAR     75  72  88 CALM      29.98F
SHENANDOAH *   CLEAR     77  70  78 CALM      29.98F
$$

IAZ047>049-059>061-072>074-084-310100-
   CENTRAL IOWA

CITY           SKY/WX    TMP DP  RH WIND       PRES   REMARKS
AMES           CLEAR     72  68  87 CALM      29.99F
6HR MIN TEMP:  71; 6HR MAX TEMP:  75;

ANKENY *       CLEAR     73  70  88 SE5       29.98F
CHARITON *     CLEAR     77  70  78 CALM      30.00F
DES MOINES     MOCLDY    77  67  71 SE6       29.98F
6HR MIN TEMP:  73; 6HR MAX TEMP:  79;

GRINNELL*      CLEAR     72  66  83 CALM      30.01F
KNOXVILLE *    CLEAR     75  68  78 SE3       29.98F
MARSHALLTOWN   CLEAR     71  66  84 CALM      29.99F
6HR MIN TEMP:  71; 6HR MAX TEMP:  73;

PELLA *        CLEAR     75  72  90 CALM      30.01S
PERRY *          N/A     73  70  88 SE3       29.99S
$$

IAZ004>006-015-016-023>025-035-036-310100-
   NORTH CENTRAL IOWA

CITY           SKY/WX    TMP DP  RH WIND       PRES   REMARKS
ALGONA *       CLEAR     70  66  88 S8        29.98S
CLARION *      PTCLDY    70  66  88 S7        29.98F
ESTHERVILLE    CLEAR     71  67  87 S10       29.95F
6HR MIN TEMP:  71; 6HR MAX TEMP:  75;

FORT DODGE *   CLEAR     72  64  78 S6        29.99S
MASON CITY     CLEAR     71  65  81 S7        30.00F
6HR MIN TEMP:  71; 6HR MAX TEMP:  75;

FOREST CITY *  MOCLDY    68  63  83 S8        29.98F
IOWA FALLS *   CLOUDY    72  66  83 S3        30.01F
$$

IAZ007>011-017>019-026>030-037>042-050>054-066-310100-
   NORTHEAST IOWA

CITY           SKY/WX    TMP DP  RH WIND       PRES   REMARKS
CEDAR RAPIDS   CLEAR     72  68  87 CALM      30.00F
6HR MIN TEMP:  71; 6HR MAX TEMP:  74; 6HR PCP: TRACE;

CHARLES CITY * CLOUDY    70  66  88 S7        30.01F
CLINTON *      CLEAR     72  66  83 CALM      30.03F
DECORAH *      CLOUDY    70  64  83 SW5       30.00F
DUBUQUE        CLEAR     70  65  84 CALM      30.02F
6HR MIN TEMP:  70; 6HR MAX TEMP:  74;

MONTICELLO *   CLEAR     72  68  88 CALM      30.01S
OELWEIN *      CLOUDY    70  64  83 S7        30.02F
WATERLOO       CLOUDY    71  64  78 S7        29.99F
6HR MIN TEMP:  71; 6HR MAX TEMP:  73;

$$

IAZ064-065-067-068-078-310100-
   EAST CENTRAL IOWA

CITY           SKY/WX    TMP DP  RH WIND       PRES   REMARKS
DAVENPORT      CLEAR     72  67  84 E6        30.01F
6HR MIN TEMP:  72; 6HR MAX TEMP:  79;

IOWA CITY      CLEAR     75  66  73 CALM      30.01F
6HR MIN TEMP:  73; 6HR MAX TEMP:  77;

MT. PLEASANT * CLEAR     78  66  66 N3        30.00S HX  80
MUSCATINE *    CLEAR     77  68  73 CALM      30.00F
QUAD CITIES    CLEAR     77  66  68 CALM      30.00F
6HR MIN TEMP:  76; 6HR MAX TEMP:  81;

$$

IAZ062-063-075>077-085>089-095>099-310100-
   SOUTHEAST IOWA

CITY           SKY/WX    TMP DP  RH WIND       PRES   REMARKS
BURLINGTON     CLEAR     79  68  69 CALM      29.99F HX  81
6HR MIN TEMP:  78; 6HR MAX TEMP:  82;

FAIRFIELD *    CLEAR     75  68  78 NE5       30.00F
FORT MADISON * CLEAR     79  72  78 CALM      30.01S HX  82
KEOKUK *       CLEAR     81  70  69 NE3       29.99S HX  84
OSKALOOSA *      N/A     73  69  85 CALM      30.00F
CENTERVILLE *  CLEAR     75  72  88 CALM      30.01F
OTTUMWA        CLEAR     76  69  79 E3        29.98F
6HR MIN TEMP:  71; 6HR MAX TEMP:  79;

WASHINGTON *     N/A    N/A N/A N/A MISG        N/A
$$

ABBREVIATIONS USED IN REMARKS
   TC - TEMPERATURES IN CELSIUS
  WCI - WIND CHILL INDEX
   HX - HEAT INDEX
  VSB - VISIBILITY
$$



USA.gov is the U.S. government's official web portal to all federal, state and local government web resources and services.